TimePDT,TemperatureF,Dew PointF,Humidity,Sea Level PressureIn,VisibilityMPH,Wind Direction,Wind SpeedMPH,Gust SpeedMPH,PrecipitationIn,Events,Conditions,WindDirDegrees,DateUTC
12:58 AM,47.8,46.9,97,29.97,10.0,Calm,Calm,-,N/A,,Clear,60,2012-09-28 07:58:00
1:58 AM,48.0,46.9,96,29.97,10.0,Calm,Calm,-,N/A,,Mostly Cloudy,0,2012-09-28 08:58:00
2:58 AM,50.2,48.0,92,29.96,10.0,Calm,Calm,-,N/A,,Mostly Cloudy,0,2012-09-28 09:58:00
3:58 AM,51.1,48.0,89,29.96,10.0,Calm,Calm,-,N/A,,Partly Cloudy,20,2012-09-28 10:58:00
4:58 AM,51.3,48.7,91,29.95,10.0,ESE,1.2,-,N/A,,Mostly Cloudy,110,2012-09-28 11:58:00
5:58 AM,52.7,48.9,87,29.96,10.0,Calm,Calm,-,N/A,,Scattered Clouds,0,2012-09-28 12:58:00
6:58 AM,52.3,49.5,90,29.97,10.0,Calm,Calm,-,N/A,,Scattered Clouds,0,2012-09-28 13:58:00
7:58 AM,54.5,50.4,86,29.99,10.0,West,2.3,-,N/A,,Clear,270,2012-09-28 14:58:00
8:29 AM,55.4,50.0,82,29.97,10.0,SW,3.5,-,N/A,Rain,Light Rain,230,2012-09-28 15:29:00
8:38 AM,55.4,50.0,82,29.98,10.0,SSW,4.6,-,N/A,,Clear,200,2012-09-28 15:38:00
8:58 AM,55.8,50.7,83,30.01,10.0,South,3.5,-,0.00,,Clear,180,2012-09-28 15:58:00
9:58 AM,59.2,51.4,75,30.01,10.0,SSE,1.2,-,N/A,,Partly Cloudy,160,2012-09-28 16:58:00
10:26 AM,60.8,51.8,72,29.99,10.0,South,2.3,-,N/A,,Scattered Clouds,190,2012-09-28 17:26:00
10:35 AM,62.6,51.8,68,29.98,10.0,South,2.3,-,N/A,,Partly Cloudy,190,2012-09-28 17:35:00
10:36 AM,62.6,53.6,72,29.98,10.0,South,2.3,-,N/A,,Partly Cloudy,180,2012-09-28 17:36:00
10:58 AM,64.4,52.5,65,30.00,10.0,West,2.3,-,N/A,,Clear,270,2012-09-28 17:58:00
11:58 AM,67.6,52.5,58,30.00,10.0,Calm,Calm,-,N/A,,Clear,30,2012-09-28 18:58:00
12:58 PM,72.3,51.6,48,29.98,10.0,Variable,1.2,-,N/A,,Partly Cloudy,0,2012-09-28 19:58:00
1:40 PM,75.2,51.8,44,29.97,10.0,North,8.1,-,N/A,,Light Drizzle,350,2012-09-28 20:40:00
1:48 PM,75.2,50.0,41,29.97,10.0,NNW,5.8,-,N/A,,Clear,340,2012-09-28 20:48:00
1:58 PM,75.7,50.2,41,29.98,10.0,West,4.6,-,0.00,,Clear,270,2012-09-28 20:58:00
2:58 PM,77.5,48.6,36,29.97,10.0,Variable,1.2,-,N/A,,Scattered Clouds,0,2012-09-28 21:58:00
3:58 PM,78.4,45.1,31,29.96,10.0,Variable,1.2,-,N/A,,Mostly Cloudy,0,2012-09-28 22:58:00
4:58 PM,79.0,47.7,33,29.96,10.0,WNW,5.8,-,N/A,,Overcast,290,2012-09-28 23:58:00
5:58 PM,75.7,51.8,43,29.96,10.0,North,8.1,-,N/A,,Partly Cloudy,350,2012-09-29 00:58:00
6:58 PM,71.8,54.7,55,29.98,10.0,NW,4.6,-,N/A,,Clear,310,2012-09-29 01:58:00
7:58 PM,68.4,54.7,62,29.99,10.0,NW,2.3,-,N/A,,Scattered Clouds,310,2012-09-29 02:58:00
8:58 PM,66.2,55.2,68,30.01,10.0,WSW,2.3,-,N/A,,Clear,250,2012-09-29 03:58:00
9:58 PM,60.6,54.9,81,30.02,10.0,Calm,Calm,-,N/A,,Clear,0,2012-09-29 04:58:00
10:58 PM,63.7,57.4,80,30.03,10.0,SSW,2.3,-,N/A,,Scattered Clouds,210,2012-09-29 05:58:00
11:58 PM,62.4,57.7,85,30.04,10.0,WSW,2.3,-,N/A,,Partly Cloudy,250,2012-09-29 06:58:00